Tracking 19794 objects as of 21-Jul-2019
HD Live streaming from Space Station
objects crossing your sky now

FLOCK 2K 45

Track FLOCK 2K 45 now!
10-day predictions
FLOCK 2K 45 is classified as:


NORAD ID: 42856
Int'l Code: 2017-042AH
Perigee: 447.9 km
Apogee: 463.2 km
Inclination: 96.9 °
Period: 93.6 minutes
Semi major axis: 6826 km
RCS: Unknown
Launch date: July 14, 2017
Source: United States (US)
Launch site: TYURATAM MISSILE AND SPACE COMPLEX (TTMTR)
aabbcc
Your satellite tracking list
Your tracking list is empty




NASA's NSSDC Master Catalog

Two Line Element Set (TLE):
1 42856U 17042AH  19201.14743470  .00001359  00000-0  36805-4 0  9996
2 42856  96.9358  82.1368 0011207 104.4151 255.8340 15.39227706112803
Source of the keplerian elements: AFSPC